Change the Weather History Date:

Monday, November 26, 2012

  Actual Average Record
Temperature  
Mean Temperature 24 °F -  
Max Temperature 28 °F 34 °F 47 °F (1982)
Min Temperature 19 °F 26 °F 4 °F (1963)
Degree Days  
Heating Degree Days 42    
Moisture  
Dew Point 16 °F    
Average Humidity 74    
Maximum Humidity 81    
Minimum Humidity 63    
Precipitation  
Precipitation 0.00 in - - ()
Sea Level Pressure  
Sea Level Pressure 30.22 in    
Wind  
Wind Speed 12 mph (North)    
Max Wind Speed 15 mph    
Max Gust Speed 24 mph    
Visibility 10 miles    
Events      
Averages and records for this station are not official NWS values.
T = Trace of Precipitation, MM = Missing Value Source: NWS Daily Summary

Daily Weather History Graph

Daily Weather History Graph

Search for Another Location

Airport or City:

Trip Planner

Search our weather history database for the weather conditions in past years. The results will help you decide how hot, cold, wet, or windy it might be!

Date:

Astronomy

Nov. 26, 2012 Rise Set
Actual Time 9:24 AM AKST 4:05 PM AKST
Civil Twilight 8:31 AM AKST 4:58 PM AKST
Nautical Twilight 7:37 AM AKST 5:52 PM AKST
Astronomical Twilight 6:46 AM AKST 6:43 PM AKST
Moon 3:17 PM AKST (11/26) 7:27 AM AKST (11/26)
Length of Visible Light 8h 27m
Length of Day
6h 40m
Waxing Gibbous, 97% of the Moon is Illuminated
Nov 26
Waxing Gibbous
Nov 28
Full
Dec 6
Last Quarter
Dec 12
New
Dec 19
First Quarter

Hourly Weather History & Observations

Time (AKST) Temp. Windchill Dew Point Humidity Pressure Visibility Wind Dir Wind Speed Gust Speed Precip Events Conditions
12:53 AM 23.0 °F 11.7 °F 17.1 °F 78% 30.17 in 10.0 mi North 11.5 mph - N/A   Clear
1:53 AM 24.1 °F 12.5 °F 17.1 °F 75% 30.18 in 10.0 mi NNE 12.7 mph 19.6 mph N/A   Clear
3:53 AM 24.1 °F 13.1 °F 17.1 °F 75% 30.19 in 10.0 mi North 11.5 mph - N/A   Clear
4:53 AM 25.0 °F 13.1 °F 18.0 °F 75% 30.19 in 10.0 mi North 13.8 mph 24.2 mph N/A   Clear
5:53 AM 24.1 °F 13.1 °F 17.1 °F 75% 30.21 in 10.0 mi North 11.5 mph 19.6 mph N/A   Clear
6:53 AM 24.1 °F 12.0 °F 17.1 °F 75% 30.22 in 10.0 mi North 13.8 mph 19.6 mph N/A   Clear
7:53 AM 23.0 °F 11.7 °F 16.0 °F 74% 30.22 in 10.0 mi North 11.5 mph 18.4 mph N/A   Clear
8:53 AM 24.1 °F 11.5 °F 16.0 °F 71% 30.22 in 10.0 mi North 15.0 mph 21.9 mph N/A   Clear
9:53 AM 25.0 °F 12.6 °F 16.0 °F 69% 30.24 in 10.0 mi North 15.0 mph 24.2 mph N/A   Clear
10:53 AM 25.0 °F 13.6 °F 16.0 °F 69% 30.25 in 10.0 mi North 12.7 mph 19.6 mph N/A   Clear
11:53 AM 25.0 °F 13.6 °F 16.0 °F 69% 30.25 in 10.0 mi North 12.7 mph - N/A   Clear
12:53 PM 27.0 °F 17.3 °F 17.1 °F 66% 30.24 in 10.0 mi North 10.4 mph - N/A   Clear
1:53 PM 28.0 °F 18.1 °F 17.1 °F 63% 30.24 in 10.0 mi North 11.5 mph - N/A   Clear
2:53 PM 28.0 °F 18.1 °F 17.1 °F 63% 30.23 in 10.0 mi North 11.5 mph - N/A   Clear
3:53 PM 26.1 °F 14.5 °F 17.1 °F 69% 30.24 in 10.0 mi North 13.8 mph - N/A   Clear
4:53 PM 24.1 °F 12.5 °F 17.1 °F 75% 30.23 in 10.0 mi North 12.7 mph - N/A   Clear
5:53 PM 21.9 °F 9.8 °F 16.0 °F 78% 30.23 in 10.0 mi North 12.7 mph - N/A   Clear
6:53 PM 21.0 °F 9.9 °F 15.1 °F 78% 30.22 in 10.0 mi NNW 10.4 mph - N/A   Clear
7:53 PM 21.0 °F 10.6 °F 15.1 °F 78% 30.22 in 10.0 mi NNW 9.2 mph - N/A   Clear
8:53 PM 21.0 °F 9.9 °F 15.1 °F 78% 30.21 in 10.0 mi NNW 10.4 mph - N/A   Clear
9:53 PM 19.0 °F 7.5 °F 14.0 °F 81% 30.20 in 10.0 mi North 10.4 mph - N/A   Clear
10:53 PM 19.9 °F 8.6 °F 14.0 °F 78% 30.18 in 10.0 mi NNW 10.4 mph - N/A   Clear
11:53 PM 19.0 °F 8.2 °F 14.0 °F 81% 30.17 in 10.0 mi NNW 9.2 mph - N/A   Scattered Clouds